Hourly Data Report for July 22, 2004

SHERBROOKE A
QUEBEC

45°26'00.000" N
71°41'00.000" W
241.40 m
7028124
71610
YSC

Download Data

Hourly Data (July 2004)
Hourly Data Report for July 22, 2004
TIME
LST
Temp Definition
°C
Dew Point Definition
°C
Rel Hum Definition
%
Precip. Amount Definition
mm

Wind Dir Definition
10's deg

Wind Spd Definition
km/h
Visibility Definition
km
Stn Press Definition
kPa
Hmdx Definition


Wind Chill Definition


Weather Definition


00:00 17.0 16.1 94   9 7 6.4 98.44      
01:00 16.8 15.8 94   10 6 6.4 98.44      
02:00 16.3 15.4 94   10 6 6.4 98.44      
03:00 15.6 14.8 95     0 6.4 98.43      
04:00 15.3 14.6 96     0 6.4 98.47      
05:00 15.8 15.1 96   8 4 5.6 98.46      
06:00 17.5 16.1 91   9 4 8.0 98.44      
07:00 20.9 18.1 84   9 6 24.1 98.40 27   Clear
08:00 24.4 19.6 75   9 6 24.1 98.37 32   Clear
09:00 26.2 19.4 66   20 11 24.1 98.33 33   Clear
10:00 27.5 19.2 61   21 11 24.1 98.29 34   Mainly Clear
11:00 28.2 19.2 58   21 11 24.1 98.25 35   Mainly Clear
12:00 28.8 17.8 51   19 19 24.1 98.18 35   Mainly Clear
13:00 29.3 16.8 47   18 19 24.1 98.12 34   Mainly Clear
14:00 29.8 17.5 48   20 24 24.1 98.10 35   Mostly Cloudy
15:00 30.1 18.0 48   19 15 24.1 98.07 36   Mostly Cloudy
16:00 29.5 17.3 48   20 15 24.1 98.03 35   Mainly Clear
17:00 28.4 17.9 53   21 11 15.0 98.01 34    
18:00 27.0 17.9 58   18 9 15.0 98.03 33    
19:00 26.2 16.9 57   18 9 15.0 98.02 31    
20:00 25.0 17.4 63   18 11 15.0 98.05 31    
21:00 24.1 17.6 67   25 7 12.9 98.14 30    
22:00 23.5 18.1 72   23 7 11.3 98.18 30    
23:00 22.8 18.5 77   20 6 9.7 98.18 29    

Notes on Data Quality.

Legend

  • E = Estimated
  • M = Missing
  • NA = Not Available*
  • [empty] = Indicates an unobserved value
Date modified: